FW9877 Weather Reports


Display with metric or nautical units.
time (UTC)temp
F
wind
direction
speed
MPH
gust
MPH
rain 1hr
in
rain 24hr
in
rain mn
in
humidity
%
barometer
mb
20260510093030 50 360 0.0 6.0 0.00 0.43 0.00 95 1010.1
20260510091532 50 0 0.0 2.0 0.00 0.43 0.00 95 1009.8
20260510090030 51 0 0.0 3.0 0.00 0.43 0.00 95 1009.7
20260510084529 51 360 0.0 3.0 0.00 0.44 0.00 95 1009.8
20260510083031 51 360 0.0 3.0 0.00 0.44 0.00 95 1009.9
20260510081534 51 360 0.0 6.0 0.00 0.44 0.00 95 1009.8
20260510080032 51 360 1.0 8.0 0.00 0.44 0.00 95 1009.5
20260510074536 51 360 1.0 6.0 0.00 0.44 0.00 95 1010.2
20260510073030 51 0 0.0 2.0 0.00 0.44 0.00 95 1010.4
20260510071536 51 360 0.0 2.0 0.00 0.44 0.00 95 1010.7
20260510070037 51 0 0.0 2.0 0.00 0.44 0.00 95 1010.8
20260510064531 50 0 0.0 3.0 0.00 0.44 0.00 95 1010.8
20260510063030 50 0 0.0 2.0 0.00 0.44 0.00 95 1010.5
20260510061535 50 0 0.0 2.0 0.00 0.44 0.00 95 1010.3
20260510060033 50 360 1.0 4.0 0.00 0.44 0.00 95 1009.8
20260510054533 50 0 1.0 5.0 0.00 0.44 0.00 94 1009.9
20260510053031 50 360 1.0 5.0 0.00 0.44 0.00 94 1010.0
20260510051535 50 0 0.0 8.0 0.00 0.44 0.00 93 1010.1
20260510050032 51 0 0.0 4.0 0.00 0.44 0.00 94 1010.0
20260510044530 51 360 0.0 4.0 0.00 0.44 0.00 94 1010.0
20260510043034 51 360 0.0 3.0 0.00 0.44 0.00 93 1009.9
20260510041545 51 0 0.0 4.0 0.00 0.44 0.00 93 1009.9
20260510040034 51 360 0.0 4.0 0.00 0.44 0.00 93 1010.0
20260510034530 51 360 0.0 5.0 0.00 0.44 0.44 92 1009.9
20260510033032 51 0 0.0 4.0 0.00 0.44 0.44 92 1009.9
20260510031534 52 0 1.0 4.0 0.00 0.44 0.44 91 1009.5
20260510030035 52 0 0.0 2.0 0.00 0.44 0.44 92 1009.9
20260510024532 52 0 0.0 4.0 0.00 0.44 0.44 91 1010.0
20260510023033 52 0 0.0 5.0 0.00 0.44 0.44 91 1009.9
20260510021536 52 360 1.0 8.0 0.00 0.44 0.44 91 1009.9
20260510020033 52 360 0.0 5.0 0.00 0.44 0.44 91 1010.1
20260510014533 52 360 1.0 5.0 0.00 0.44 0.44 91 1010.0
20260510013037 52 360 2.0 8.0 0.00 0.44 0.44 91 1009.9
20260510011530 52 360 1.0 5.0 0.00 0.44 0.44 92 1009.8
20260510010030 53 0 0.0 5.0 0.00 0.44 0.44 92 1009.9
20260510004532 53 0 0.0 3.0 0.00 0.44 0.44 92 1009.9
20260510003040 53 0 1.0 5.0 0.00 0.44 0.44 92 1009.6
20260510001539 53 0 0.0 4.0 0.00 0.44 0.44 92 1009.4
20260510000031 53 360 0.0 3.0 0.00 0.44 0.44 92 1009.2
20260509234537 53 0 0.0 3.0 0.00 0.44 0.44 92 1009.0
20260509233032 53 360 1.0 9.0 0.00 0.44 0.44 92 1008.7
20260509231531 54 360 3.0 9.0 0.00 0.44 0.44 93 1008.7
20260509230032 54 360 2.0 9.0 0.00 0.44 0.44 93 1008.6
20260509224532 54 0 1.0 8.0 0.00 0.44 0.44 93 1008.9
20260509223030 54 360 1.0 9.0 0.00 0.44 0.44 94 1008.9
20260509221530 54 360 1.0 5.0 0.00 0.44 0.44 94 1009.0
20260509220034 54 360 1.0 6.0 0.00 0.44 0.44 95 1009.0
20260509214539 54 0 1.0 5.0 0.00 0.44 0.44 95 1008.9
20260509213030 54 360 0.0 5.0 0.00 0.44 0.44 95 1009.0
20260509211531 54 360 1.0 8.0 0.00 0.44 0.44 96 1009.1
20260509210034 53 0 2.0 6.0 0.00 0.44 0.44 96 1009.3
20260509204542 53 360 1.0 9.0 0.00 0.44 0.44 96 1009.5
20260509203035 53 360 1.0 10.0 0.00 0.44 0.44 96 1009.6
20260509201532 53 360 2.0 6.0 0.00 0.44 0.44 97 1009.7
20260509200038 53 360 2.0 8.0 0.01 0.44 0.44 97 1009.8
20260509194539 52 360 2.0 5.0 0.02 0.44 0.44 97 1010.1
20260509193038 52 360 0.0 5.0 0.03 0.44 0.44 97 1010.1
20260509191533 51 360 1.0 3.0 0.05 0.44 0.44 96 1010.3
20260509190032 51 0 0.0 3.0 0.05 0.43 0.43 96 1010.6
20260509184536 51 360 0.0 4.0 0.05 0.42 0.42 96 1010.6
20260509183031 50 360 1.0 10.0 0.06 0.41 0.41 96 1010.5
20260509181529 50 360 2.0 8.0 0.05 0.39 0.39 96 1010.4
20260509180032 50 360 2.0 9.0 0.05 0.38 0.38 96 1010.4
20260509174533 49 360 2.0 8.0 0.04 0.37 0.37 96 1010.6
20260509173035 49 0 1.0 4.0 0.03 0.35 0.35 96 1010.9
20260509171533 49 0 0.0 4.0 0.03 0.34 0.34 96 1011.0
20260509170031 48 360 1.0 9.0 0.03 0.33 0.33 96 1011.1
20260509164534 48 0 1.0 6.0 0.05 0.33 0.33 96 1011.2
20260509163032 48 0 0.0 4.0 0.05 0.32 0.32 96 1011.5
20260509161531 48 360 1.0 5.0 0.05 0.31 0.31 96 1011.7
20260509160032 47 0 0.0 4.0 0.06 0.30 0.30 96 1012.0
20260509154535 47 360 1.0 5.0 0.06 0.28 0.28 96 1012.1
20260509153034 46 0 1.0 5.0 0.07 0.27 0.27 96 1012.3
20260509151534 46 360 0.0 5.0 0.08 0.26 0.26 96 1012.6
20260509150030 46 360 1.0 5.0 0.09 0.24 0.24 96 1012.7
20260509144534 46 0 0.0 4.0 0.08 0.22 0.22 96 1012.7
20260509143039 46 360 2.0 6.0 0.08 0.20 0.20 96 1012.7
20260509141539 45 360 0.0 1.0 0.06 0.18 0.18 96 1012.5
20260509140053 45 0 0.0 2.0 0.03 0.15 0.15 95 1012.5
20260509134533 45 0 0.0 3.0 0.02 0.13 0.13 95 1012.4
20260509133030 45 0 0.0 2.0 0.01 0.12 0.12 95 1012.3
20260509131539 44 360 0.0 2.0 0.02 0.12 0.12 95 1012.3
20260509130035 44 0 0.0 1.0 0.03 0.12 0.12 95 1012.4
20260509124537 44 0 0.0 1.0 0.02 0.11 0.11 95 1012.5
20260509123034 44 0 0.0 1.0 0.03 0.11 0.11 95 1012.7
20260509121547 44 0 0.0 2.0 0.03 0.10 0.10 95 1012.8
20260509120035 44 0 0.0 2.0 0.02 0.09 0.09 95 1012.9
20260509114533 43 0 1.0 5.0 0.02 0.09 0.09 95 1012.7
20260509113033 43 0 0.0 2.0 0.02 0.08 0.08 95 1012.8
20260509111532 43 360 0.0 5.0 0.01 0.07 0.07 95 1012.9
20260509110032 43 360 0.0 5.0 0.02 0.07 0.07 94 1012.9
20260509104533 42 360 3.0 9.0 0.03 0.07 0.07 94 1012.5
20260509103035 42 360 2.0 8.0 0.03 0.06 0.06 94 1012.7
20260509101532 42 360 2.0 6.0 0.03 0.06 0.06 94 1012.9
20260509100033 41 0 0.0 4.0 0.04 0.05 0.05 93 1012.8
20260509094533 41 0 0.0 2.0 0.03 0.04 0.04 93 1012.8